Theta_e
333 327 325 325 326 326 318 316 302 310 307 297 295 298 297 302 300 299 297 300 298 305 308 308 307 308 307 307 306 310 309 305 308 301 305 320 327 336 341 336 337 337 338 339 339 340 340 345 346 346 343 342 342 342 341 340 340 338 339 340 348 348 348 348 348 347 347 347 347 347 347 346 346 346 347 346 347 347 346 346 346 345 344 344 343 343 342 341 341 340 340 340 339 339 338 338 336
327 326 327 326 324 322 313 316 307 300 302 295 295 299 300 301 300 298 295 300 301 305 307 308 308 309 311 312 307 310 312 315 318 318 322 327 333 336 338 337 337 336 338 338 338 339 339 340 346 346 342 343 343 342 341 340 340 338 339 339 346 347 347 347 347 347 347 347 347 347 347 346 347 347 347 347 345 347 347 346 345 344 344 343 342 341 340 340 341 340 339 339 338 338 338 337 336
327 327 328 327 322 318 314 313 300 299 300 291 295 298 301 298 300 300 302 304 307 308 308 310 310 310 309 308 306 309 305 320 322 322 320 330 329 331 337 337 338 338 338 337 337 338 338 340 344 344 343 343 342 341 339 340 339 338 338 340 345 346 346 346 347 347 347 346 346 347 346 346 347 347 347 346 346 346 346 345 345 344 344 343 342 341 340 340 340 340 339 339 338 337 338 337 337
330 331 326 324 314 319 309 306 303 298 300 293 292 299 300 301 303 307 308 308 308 308 309 307 306 313 309 308 307 313 313 314 318 322 321 324 326 334 337 337 339 338 338 337 336 338 338 341 343 344 343 341 341 340 339 339 339 338 338 340 344 345 346 347 348 347 347 346 346 346 346 346 347 346 346 347 346 345 345 345 345 343 343 342 342 342 340 340 339 339 339 338 337 337 338 337 337
329 327 326 324 319 313 311 305 301 301 294 296 292 299 301 304 307 309 309 309 308 308 310 308 309 314 315 311 312 310 311 319 320 319 322 329 334 336 337 338 338 337 337 337 336 338 338 341 342 343 344 340 339 339 339 339 339 338 339 341 344 345 347 347 347 347 346 346 346 346 347 346 345 346 346 345 346 345 345 344 344 343 343 342 342 341 341 340 339 339 338 337 338 338 337 337 336
323 323 332 327 314 315 310 301 298 297 300 302 296 298 302 306 308 309 309 311 311 310 312 307 309 306 308 310 319 315 322 316 321 325 328 328 334 337 338 339 338 337 337 338 337 338 337 340 341 343 343 340 339 339 339 339 339 339 338 339 344 345 346 347 347 347 346 346 346 346 346 346 346 346 346 346 346 345 345 344 343 343 343 342 341 340 340 340 339 339 338 338 338 338 337 336 336
323 322 326 324 320 318 303 299 299 298 300 303 299 300 303 305 307 308 308 309 312 312 313 311 314 310 308 314 320 323 329 325 325 328 329 332 336 338 338 337 337 337 337 338 338 338 338 340 342 343 343 340 339 339 340 339 339 339 339 337 343 346 347 347 347 346 346 346 347 346 346 346 345 345 345 346 345 344 344 343 343 342 342 342 342 340 340 340 339 339 338 338 338 337 336 336 335
329 322 319 312 309 308 299 298 300 300 299 304 305 303 305 307 307 307 306 306 306 306 309 311 312 310 309 315 312 324 331 331 330 332 333 333 336 338 339 337 336 336 337 338 338 337 342 339 342 342 343 340 339 339 339 338 340 340 342 346 347 347 346 346 346 346 346 347 347 347 346 346 345 345 345 345 345 344 344 343 343 342 342 342 341 341 339 338 339 339 338 337 337 336 336 335 335
325 322 326 316 306 310 299 298 301 302 301 303 303 308 312 308 308 307 305 308 307 309 307 310 311 307 309 311 316 322 327 330 330 332 332 333 335 337 337 337 336 335 336 336 336 336 336 338 341 343 342 341 339 340 339 339 340 340 344 345 346 346 345 345 346 346 346 347 346 346 346 346 345 345 345 344 344 344 343 343 343 342 341 341 340 340 340 338 338 338 338 337 336 336 335 335 334
318 319 311 312 311 301 300 298 302 300 301 303 303 305 307 308 308 308 307 306 305 310 308 310 311 308 310 310 316 323 323 329 328 329 331 333 335 335 334 336 336 335 335 336 336 335 336 341 338 340 341 341 342 342 340 340 340 340 343 344 345 345 345 345 345 345 345 345 345 346 346 345 345 345 345 345 344 344 343 342 341 341 341 340 340 340 340 339 337 336 337 337 336 335 335 335 334
311 321 322 310 304 300 300 299 299 302 302 304 305 306 307 308 309 308 308 307 307 306 309 311 309 308 310 316 321 329 329 329 326 326 329 331 332 332 332 334 336 335 334 335 335 335 336 336 340 337 340 341 343 344 344 342 340 340 341 344 344 343 344 345 345 345 345 345 345 345 345 345 345 345 344 344 344 344 343 342 341 340 340 340 339 338 339 339 338 337 336 336 336 335 335 334 334
311 313 317 306 302 302 303 302 302 301 303 303 303 307 306 307 310 308 307 305 304 308 309 309 307 310 306 308 317 324 328 328 326 327 329 330 329 331 331 332 336 335 336 335 335 333 333 335 336 340 336 338 340 342 342 343 342 340 341 344 344 344 344 345 344 344 345 345 345 345 344 344 344 345 345 345 344 343 342 341 341 340 339 339 338 338 338 338 338 338 336 336 335 335 334 334 334
314 315 309 306 303 305 307 303 302 302 301 301 304 307 307 306 306 308 308 307 304 305 307 308 314 311 303 307 321 324 323 328 326 327 330 328 329 329 331 333 334 335 335 334 333 333 332 333 333 336 336 334 336 338 339 341 343 343 345 344 344 344 344 344 344 345 346 345 344 346 346 345 346 345 344 345 343 343 342 342 342 340 339 339 338 338 337 338 338 338 337 336 336 335 334 334 333
317 316 312 305 308 306 306 305 304 301 300 304 306 308 308 306 307 309 307 306 304 304 312 311 312 311 308 318 319 318 323 328 326 329 329 328 329 330 331 333 334 334 335 334 332 334 332 330 332 335 336 334 335 335 335 337 340 343 343 343 344 345 345 345 345 346 346 345 344 344 345 345 345 345 344 343 342 342 341 339 339 340 339 338 338 337 337 337 337 338 338 337 336 335 334 334 334
315 318 313 308 304 305 308 303 305 304 301 305 307 307 306 311 310 308 308 305 307 312 314 314 317 312 304 310 309 321 326 327 328 329 329 328 330 330 332 332 334 334 332 333 332 332 332 331 331 332 335 333 333 334 336 336 334 337 340 341 341 342 343 342 342 342 342 341 341 341 342 343 341 341 340 339 339 339 338 335 335 338 339 338 337 337 337 337 337 337 338 337 337 336 335 335 335
321 316 312 306 302 303 306 305 308 305 301 305 307 308 307 310 311 308 309 309 309 315 310 308 315 307 316 322 323 326 327 328 328 329 329 328 329 330 331 330 330 332 331 331 331 332 332 332 332 332 334 333 332 333 334 337 330 331 337 338 338 339 339 339 338 338 336 335 334 336 337 338 338 338 337 337 335 336 337 333 333 337 339 338 337 337 336 336 337 337 338 338 338 337 336 336 337
322 319 306 305 301 304 308 306 307 303 303 306 310 307 306 306 310 310 311 313 309 308 309 313 311 314 317 323 328 329 328 328 328 329 328 326 325 325 326 326 326 328 332 329 330 331 331 331 332 332 332 333 332 333 334 337 335 331 333 333 332 333 334 334 333 331 330 326 327 329 334 339 339 339 336 338 333 335 329 328 330 335 338 338 337 336 336 336 336 336 336 338 337 337 337 336 335
320 309 305 302 305 304 310 309 310 310 304 304 307 307 307 305 307 309 311 309 308 308 308 311 315 319 323 324 330 329 328 327 328 327 326 324 324 321 321 321 323 325 327 327 329 331 331 331 331 332 331 332 332 334 335 336 337 335 337 337 335 333 330 330 331 337 337 336 327 332 336 337 338 337 338 339 335 335 330 326 328 332 336 336 337 337 336 335 335 335 335 336 337 337 333 329 326
311 308 307 302 306 309 313 313 312 310 305 307 308 310 307 307 308 308 305 305 305 305 307 309 310 319 321 325 328 327 326 326 326 325 325 323 322 322 320 321 321 323 325 326 328 329 330 330 331 331 331 332 332 332 335 335 337 337 337 337 338 334 337 337 337 337 338 338 337 338 337 336 336 336 337 336 337 329 332 325 328 331 333 334 334 336 335 335 334 336 336 335 336 333 326 326 326
312 308 304 306 311 312 313 313 311 311 311 308 306 307 307 309 310 310 306 305 306 304 304 305 308 314 318 322 325 326 325 325 324 323 323 322 322 321 321 322 322 322 326 326 326 330 330 329 330 331 331 331 331 331 333 332 337 337 335 335 336 337 337 337 337 338 337 337 339 338 336 335 335 334 338 339 340 335 330 324 326 328 330 330 330 332 332 333 333 332 330 329 329 326 324 325 326
312 308 305 309 312 309 313 314 313 310 311 311 308 308 307 308 310 309 308 304 304 306 308 308 307 311 318 320 323 325 325 323 322 322 322 322 322 322 322 323 322 323 325 326 327 328 329 329 330 330 331 331 330 329 330 329 331 335 334 333 335 336 335 337 337 336 336 335 336 337 335 333 335 334 334 335 335 334 331 329 328 330 330 329 327 330 329 328 327 324 323 321 322 324 323 324 324
315 309 311 312 312 310 315 314 312 310 310 310 310 308 310 309 309 308 307 303 302 306 309 310 312 317 320 320 323 325 324 323 322 322 322 322 322 321 322 322 324 324 325 325 326 328 329 329 329 329 330 331 330 329 329 329 330 328 329 330 332 336 336 336 336 336 335 334 334 334 335 333 333 334 335 335 334 334 332 331 331 332 332 331 329 330 329 328 326 326 325 324 323 324 324 323 324
306 310 311 312 313 311 314 314 311 312 312 311 310 310 309 310 310 310 307 306 307 310 310 310 311 322 323 323 324 323 324 324 323 322 322 322 322 323 323 323 324 323 324 324 326 327 328 329 330 330 330 330 330 330 329 329 328 328 328 328 328 331 335 335 335 335 334 334 334 333 332 331 330 331 332 334 334 333 332 333 332 332 331 331 330 330 328 329 327 326 324 324 323 322 322 323 323
311 307 311 311 314 312 315 311 313 312 311 311 309 311 309 310 306 312 309 310 311 313 311 312 312 317 324 323 323 322 324 325 324 324 324 324 324 324 324 324 324 325 324 325 326 326 327 329 330 330 330 330 330 330 329 328 328 329 329 328 328 326 332 334 334 335 334 334 334 333 331 331 329 329 331 332 332 332 330 330 331 331 330 329 332 330 328 327 328 325 323 323 324 323 322 322 322
309 308 311 312 313 313 314 311 312 313 312 311 312 309 309 311 311 309 307 310 313 313 311 312 312 314 315 322 322 322 322 325 325 325 326 325 326 327 326 325 325 326 325 325 326 327 328 328 329 330 330 330 330 330 329 328 328 328 328 327 327 327 328 330 331 333 334 334 334 333 331 330 328 329 330 330 331 330 330 330 328 327 328 328 329 328 327 325 324 322 322 323 323 323 322 322 321
311 311 311 311 312 314 313 312 312 311 312 312 310 309 311 313 311 309 310 313 315 317 316 312 313 312 313 313 319 319 320 322 325 325 325 326 327 326 326 325 325 326 327 327 326 326 328 328 328 329 330 330 330 330 329 328 328 327 328 327 327 326 326 328 330 330 330 331 332 333 332 330 329 327 327 329 331 330 329 330 329 328 326 327 326 326 324 324 322 321 321 321 323 323 323 322 321
314 311 311 311 312 312 312 311 312 312 311 312 309 309 310 312 310 305 314 316 317 317 316 313 313 312 311 312 314 318 318 319 323 325 325 326 326 326 326 327 325 325 327 327 327 327 327 328 328 329 330 328 330 329 329 328 328 328 328 327 327 327 326 327 328 329 330 329 329 332 332 331 331 329 327 327 329 330 330 330 329 329 327 326 326 326 326 325 323 321 322 321 321 322 322 322 320
313 312 311 311 312 313 312 312 311 311 310 312 311 309 310 311 308 307 312 315 313 314 314 314 313 312 312 312 312 316 318 319 320 323 323 325 325 326 326 327 327 326 326 327 328 328 328 328 328 328 329 329 329 329 328 328 328 328 328 328 327 328 327 326 325 327 326 329 329 329 333 332 330 329 329 327 327 327 328 329 329 329 327 327 327 325 324 325 325 323 322 321 321 322 322 322 322
312 312 306 308 309 309 312 310 310 311 309 311 312 307 305 307 305 308 311 314 313 312 312 313 312 313 314 313 311 314 316 317 318 321 323 325 327 329 327 329 329 328 327 328 328 328 328 328 328 328 329 328 328 328 328 329 328 328 327 327 328 329 327 326 325 326 326 328 330 330 330 332 331 330 329 328 327 327 326 327 327 328 328 328 327 326 325 323 324 324 324 321 320 319 319 321 322
311 309 306 305 305 304 309 311 310 309 311 312 309 296 300 305 308 311 312 312 313 313 311 312 313 313 313 314 313 311 316 318 317 319 322 324 327 329 328 329 330 330 328 328 329 329 329 330 330 329 328 328 327 328 328 328 328 328 327 328 327 328 327 326 326 326 326 326 328 330 331 330 329 331 330 329 328 326 326 326 326 326 326 327 327 326 325 324 323 323 322 322 321 321 319 320 318
303 306 306 300 298 298 308 309 310 307 311 311 310 297 301 306 309 312 313 313 311 310 311 312 313 314 313 314 314 313 314 318 319 320 323 325 325 327 328 328 329 330 328 328 328 329 329 330 330 330 328 328 327 327 327 328 328 327 327 327 327 327 327 327 326 326 326 326 327 328 331 331 329 329 329 329 328 327 326 326 326 326 326 326 325 325 325 324 324 323 321 321 321 320 319 319 319
304 299 295 299 297 298 304 310 309 305 309 312 307 298 300 306 309 312 313 312 311 310 310 311 313 313 314 314 314 314 315 317 319 321 324 325 325 325 327 327 328 329 329 329 329 330 330 330 329 329 328 327 328 328 327 328 328 328 327 326 327 327 326 327 326 326 326 326 327 327 329 331 330 330 328 328 327 327 327 326 326 326 326 326 325 324 325 324 324 323 323 323 321 322 322 321 320
302 298 295 295 298 298 299 305 309 310 308 309 306 298 303 304 310 313 312 312 311 310 311 311 313 313 313 313 313 313 314 315 317 319 321 325 326 325 326 328 328 328 329 329 329 329 329 330 329 329 328 328 328 328 328 328 328 328 328 327 328 327 327 326 326 326 326 326 327 327 327 329 330 330 330 328 326 326 326 327 326 327 327 326 325 326 326 326 325 325 324 324 324 322 322 321 320
296 299 295 297 296 298 296 303 306 308 308 303 306 302 302 305 308 311 312 312 311 310 310 311 312 311 312 313 313 313 313 313 316 318 320 321 324 326 327 327 328 328 329 329 330 330 329 330 329 329 329 329 329 329 329 328 328 328 328 328 325 327 327 326 326 326 326 326 326 326 327 327 327 330 330 329 328 327 326 326 326 326 327 327 326 325 326 326 327 326 324 324 324 322 321 320 318
293 295 294 294 296 297 298 297 302 305 307 304 302 301 302 305 308 309 310 312 311 310 310 310 311 312 312 313 313 313 313 313 314 316 319 321 322 324 326 327 329 328 329 329 329 330 329 329 329 328 328 329 329 329 329 329 328 328 327 327 327 326 327 327 327 326 326 326 326 326 326 326 325 328 328 328 328 327 326 326 327 326 326 327 326 325 325 325 325 325 324 323 324 324 322 320 317
296 297 296 296 293 294 295 300 307 307 303 302 302 300 302 304 306 308 309 310 310 311 311 311 311 311 311 311 312 311 312 313 314 316 318 320 322 323 324 327 328 329 329 329 328 329 329 329 329 328 328 329 329 329 329 328 327 326 326 326 326 325 326 326 327 327 327 327 327 326 326 326 326 326 327 327 327 326 326 325 326 326 326 326 326 325 325 324 323 323 323 322 321 320 321 321 319
298 298 297 297 296 296 299 300 303 308 303 302 303 303 303 304 305 307 309 309 309 309 309 309 310 310 311 311 311 312 312 313 316 317 318 319 320 322 323 324 327 328 328 328 328 328 329 328 328 327 328 329 328 327 327 327 326 325 325 325 325 326 326 326 326 327 327 327 327 327 326 326 326 325 326 327 326 323 325 325 325 325 326 325 325 325 324 323 323 323 321 319 319 318 318 319 319
297 295 295 294 297 295 300 299 304 307 302 299 302 302 302 304 306 307 307 307 306 307 307 308 309 309 310 310 311 311 312 315 316 316 316 317 318 319 320 322 322 325 326 327 327 328 329 329 328 328 328 328 328 328 327 327 327 327 326 325 326 326 325 324 325 326 327 327 327 327 326 326 326 326 324 326 325 325 323 323 324 324 324 324 324 324 323 320 321 322 322 320 319 318 316 316 317
298 295 294 293 294 299 301 302 301 305 303 298 300 299 300 302 304 306 306 306 306 307 308 308 308 308 309 310 310 311 311 312 314 315 315 315 317 318 318 319 321 324 325 326 326 326 327 328 328 328 328 328 328 328 328 327 328 328 327 326 326 325 327 327 326 326 326 326 327 327 326 326 326 326 325 324 325 325 324 322 322 322 323 322 321 321 321 320 320 319 319 318 315 318 317 315 316
296 295 293 291 297 295 290 298 301 302 301 299 299 299 300 302 303 303 304 304 305 307 309 309 309 308 309 309 310 310 310 311 312 313 313 314 314 317 317 317 318 319 319 321 324 325 327 327 328 328 328 328 327 328 326 328 328 328 328 327 327 326 325 325 326 326 326 326 326 327 327 326 326 325 325 325 324 325 324 323 322 321 321 321 320 319 319 319 319 319 318 317 316 313 314 315 316
297 297 295 294 295 295 294 295 299 302 301 302 299 297 297 299 298 299 301 302 302 304 305 306 308 309 310 310 309 309 309 310 311 312 313 312 313 315 317 318 318 318 318 319 320 322 325 326 327 328 328 327 327 326 326 328 327 326 327 326 324 324 324 324 324 324 325 325 325 326 326 327 326 326 326 325 323 324 324 323 322 321 321 320 320 320 319 319 319 319 319 318 317 315 313 314 315
295 297 298 298 298 296 296 298 296 294 294 300 299 289 290 296 298 299 301 300 300 302 302 303 304 305 307 307 307 308 309 309 309 311 312 312 313 315 317 317 318 318 319 320 320 321 322 324 326 327 327 328 327 327 327 327 326 326 325 324 322 322 321 322 322 323 324 324 324 326 326 327 326 326 326 325 324 323 323 323 323 321 320 320 320 320 320 319 319 319 320 319 317 317 315 313 313
292 294 300 299 298 298 297 296 295 287 284 295 300 289 285 292 293 295 296 298 299 301 301 302 303 303 304 305 306 307 307 308 309 310 310 311 313 315 316 317 318 319 320 321 321 321 321 323 325 327 327 327 328 327 327 325 326 326 325 324 324 323 322 323 324 325 325 325 326 325 326 327 327 326 325 325 325 323 323 323 323 322 321 320 319 320 319 319 319 320 320 319 318 317 317 314 314
292 300 300 299 297 296 296 297 294 291 297 298 297 295 288 288 295 299 300 299 299 298 300 302 303 304 305 306 307 307 308 309 310 311 312 312 312 313 315 317 318 320 321 321 320 321 321 322 324 326 327 326 328 328 327 326 325 325 325 324 324 323 323 323 324 325 326 326 326 326 326 326 326 326 326 325 325 324 323 323 323 322 321 321 319 319 320 320 320 320 319 320 319 318 318 316 315
296 301 303 299 298 297 297 296 293 294 292 287 292 295 288 287 293 299 300 297 298 299 300 301 303 305 307 308 309 309 310 311 312 313 313 314 314 315 315 316 318 319 320 321 321 321 322 322 323 325 326 326 327 327 327 326 324 324 324 324 323 323 324 324 324 324 325 325 325 326 325 326 326 326 326 325 325 325 322 323 323 322 321 321 319 320 320 320 320 319 319 319 319 319 319 319 317
300 304 306 303 302 300 298 294 292 292 288 285 290 294 286 287 292 294 297 296 296 297 299 301 302 303 305 308 310 311 311 312 313 314 314 315 316 317 318 319 319 320 320 322 322 322 322 321 321 322 324 326 326 326 326 327 325 323 323 323 323 323 323 323 324 324 323 324 324 324 325 325 325 325 325 325 325 325 324 323 323 322 322 321 318 320 320 320 320 320 320 320 320 319 319 318 318
302 302 300 298 299 297 295 294 291 288 285 287 292 294 291 283 289 291 291 295 297 298 300 301 303 303 304 307 310 312 313 312 311 312 314 314 316 317 318 319 319 319 319 321 322 322 321 321 321 320 322 324 324 325 326 326 326 325 323 323 323 322 322 322 322 323 323 323 323 323 324 325 325 325 325 325 325 325 324 323 322 323 322 320 319 320 320 320 320 320 320 320 319 320 319 319 317
300 296 295 296 291 292 290 289 291 285 283 289 293 293 293 283 286 292 297 298 299 300 299 301 302 302 304 304 307 309 310 312 313 313 312 314 315 315 315 316 317 318 321 321 320 322 321 321 320 319 319 320 321 323 324 326 326 326 324 323 323 323 323 323 322 321 322 322 323 323 324 324 324 325 325 324 324 325 324 323 322 322 321 321 320 321 321 321 321 321 321 320 320 320 321 319 320
299 296 295 288 284 286 282 285 282 283 282 286 292 293 289 288 292 294 297 298 299 301 304 302 302 303 304 305 306 307 308 309 312 312 313 313 313 314 314 315 316 317 317 317 319 320 320 320 320 319 319 319 319 320 322 324 325 325 325 324 323 323 323 323 323 322 322 322 322 322 322 323 323 323 324 324 324 324 324 323 323 322 321 321 321 321 321 321 321 321 321 320 320 320 320 320 319
296 293 290 286 282 281 278 282 284 284 287 290 289 293 287 291 294 298 298 300 301 302 303 304 303 302 304 306 307 309 310 311 311 312 312 312 314 314 315 316 316 317 317 317 317 317 320 321 320 319 319 318 318 318 319 320 323 325 325 325 324 323 322 323 323 323 323 322 323 322 323 323 323 324 324 324 325 325 324 324 323 323 323 322 321 321 321 321 321 321 320 320 320 321 321 321 320
296 298 294 288 287 282 278 281 278 280 283 286 291 285 281 285 289 297 299 301 302 304 304 303 303 307 307 306 307 309 311 312 311 311 312 313 314 314 316 316 315 315 316 316 316 316 316 317 318 317 317 316 316 317 318 319 320 323 325 325 325 324 323 322 323 324 323 322 322 322 323 323 323 323 324 324 324 325 325 324 324 323 323 323 321 321 321 321 320 320 320 320 320 320 321 321 320
297 298 298 290 287 290 284 284 284 284 283 283 285 285 288 290 296 297 299 298 300 301 302 301 302 304 305 305 305 306 309 310 311 311 312 312 313 313 314 314 314 313 313 312 313 314 314 314 314 315 316 315 316 315 316 317 318 320 322 324 324 323 322 322 321 322 323 323 323 322 322 323 323 322 323 323 324 324 325 324 323 323 323 323 322 321 321 321 320 320 320 319 319 320 320 320 321
293 295 288 292 297 293 286 286 286 286 284 282 287 288 291 296 298 299 299 299 298 299 301 301 301 303 304 305 305 304 306 307 307 310 310 311 312 311 312 311 311 311 311 311 312 313 314 314 314 314 314 313 314 314 315 316 317 317 319 322 323 322 322 321 321 321 322 322 322 322 322 322 322 322 322 323 323 324 324 324 324 323 323 323 322 321 321 321 321 320 319 319 319 319 319 320 320
296 289 293 297 297 297 289 282 284 283 280 282 288 285 287 286 284 297 297 297 298 298 299 301 301 302 303 303 304 305 306 307 308 310 310 310 310 311 311 311 311 311 311 310 311 312 313 313 313 313 312 312 312 313 313 314 314 316 317 319 320 322 322 322 321 321 321 321 321 322 322 321 321 322 323 323 323 323 323 320 323 323 323 323 322 322 321 321 320 320 320 320 320 320 319 319 320
297 294 302 292 285 284 287 285 279 279 279 281 284 286 287 289 289 291 292 295 296 298 299 299 299 301 302 303 305 305 305 307 309 308 306 307 306 308 308 308 309 309 309 309 311 312 311 311 311 311 311 311 312 313 313 314 314 316 318 318 318 320 321 322 322 322 321 321 321 321 321 322 321 321 321 321 321 322 322 322 323 322 322 322 322 322 322 321 321 320 320 320 320 320 319 318 319
301 299 296 296 290 286 286 286 287 286 280 281 281 284 282 291 292 294 294 294 296 297 298 299 300 302 303 304 304 305 304 304 304 306 305 307 306 306 306 306 306 307 307 308 307 307 308 308 309 309 309 310 310 310 310 310 312 313 315 316 316 317 319 321 321 321 321 320 320 320 320 320 321 321 321 321 320 320 321 321 321 322 321 321 321 322 322 321 321 320 320 319 319 319 319 318 318
291 292 289 292 289 294 292 290 287 284 282 282 281 280 284 291 296 295 296 297 296 299 299 300 301 302 302 302 302 302 303 303 302 303 303 303 303 302 303 302 303 304 304 304 306 307 306 306 305 306 306 306 306 307 309 309 310 311 312 313 314 316 317 318 319 320 321 320 320 319 320 320 318 320 320 320 320 320 320 321 321 320 321 321 321 321 321 321 320 320 320 319 319 319 318 318 318
294 293 291 292 289 285 284 281 290 286 284 281 282 280 285 294 298 297 296 296 299 300 299 300 300 301 301 301 301 301 301 301 302 301 301 301 301 302 301 302 303 302 303 302 304 303 303 302 303 303 304 305 305 306 307 307 308 309 310 311 312 313 314 315 316 318 319 319 318 318 318 317 318 319 319 319 319 320 320 320 320 320 320 320 320 320 320 320 320 319 319 320 320 318 317 317 317
Wind_Speed
11 10 8 9 6 3 5 2 2 2 1 3 4 2 2 2 3 4 4 3 3 3 3 4 3 3 4 2 2 9 8 5 4 0 1 1 2 5 1 12 10 12 12 11 9 8 6 4 8 8 9 8 8 8 8 7 5 5 5 5 11 9 9 9 7 7 7 8 8 9 8 10 11 11 11 11 11 12 12 14 15 15 15 15 15 15 16 16 16 16 15 15 15 15 15 15 15
8 9 9 8 4 2 2 1 2 5 4 4 3 5 3 3 3 5 4 3 4 3 2 4 4 2 1 1 1 5 10 9 6 5 4 4 3 3 4 10 11 11 10 9 9 8 6 4 7 9 10 10 8 9 8 7 5 5 5 4 10 8 8 8 8 7 7 7 8 8 9 10 11 10 11 11 10 12 12 14 15 15 14 14 14 15 14 14 14 14 15 15 15 14 14 14 14
8 8 8 5 7 4 3 1 3 4 2 4 3 4 4 3 2 5 4 9 8 5 3 5 4 0 0 4 1 3 3 9 11 8 5 6 6 4 6 9 8 10 12 9 9 8 6 6 7 10 12 11 9 8 8 7 4 5 5 5 9 8 7 8 8 7 7 7 8 8 9 10 11 11 11 11 11 12 12 13 14 15 15 14 14 14 14 14 13 13 14 13 14 14 14 14 13
7 7 5 4 4 3 2 2 3 4 2 6 4 3 3 3 5 10 9 7 7 4 2 2 2 1 4 4 3 5 5 3 7 10 5 6 4 7 7 9 9 7 8 8 8 8 6 8 10 10 9 10 9 7 8 7 5 5 4 4 8 7 7 8 8 7 7 7 8 8 9 10 11 11 11 12 11 12 12 13 14 14 14 14 14 14 13 13 12 12 13 13 13 14 14 13 12
7 5 5 1 2 2 2 3 4 1 5 3 3 3 3 3 11 8 6 5 3 4 2 1 2 1 2 0 3 1 2 7 6 8 7 1 10 6 6 9 8 7 7 8 8 7 8 11 9 9 8 10 9 7 7 7 6 6 5 5 7 6 7 8 8 8 7 7 7 8 10 11 10 12 11 11 12 12 12 12 12 13 13 14 13 13 13 13 12 12 12 13 13 13 13 12 12
8 4 3 1 2 1 1 3 5 3 2 2 5 3 2 6 9 8 6 5 3 1 3 2 1 3 1 3 3 3 1 0 4 6 6 6 11 8 7 8 8 7 7 8 7 7 8 11 8 7 8 10 9 8 8 7 6 3 5 3 8 6 7 7 7 7 8 7 8 9 10 10 10 10 11 11 11 12 11 11 12 11 12 13 13 12 13 12 12 11 11 12 12 12 11 11 12
4 6 0 2 3 1 2 4 6 7 4 4 4 4 4 7 8 7 6 5 1 2 2 1 2 2 3 3 5 4 6 3 4 1 6 9 10 8 8 6 8 7 6 7 7 10 9 11 8 7 9 10 10 9 8 7 5 2 4 1 5 7 8 6 6 6 7 8 8 8 10 10 10 10 11 11 11 11 11 11 10 10 11 12 12 12 11 12 12 12 11 11 11 11 11 11 10
3 1 2 2 3 1 3 6 2 6 2 5 6 5 6 9 6 5 5 3 3 2 1 3 2 3 3 4 3 2 7 7 10 11 12 9 9 9 5 7 7 6 6 6 9 8 11 11 8 7 9 9 9 9 8 7 5 2 6 6 8 8 7 6 6 5 6 8 8 8 9 10 9 9 10 10 10 11 11 10 10 10 10 11 11 11 11 11 11 11 11 11 11 10 10 10 9
2 2 1 1 3 2 4 5 3 4 4 4 4 6 7 7 5 5 5 2 6 2 4 3 1 1 2 4 5 4 5 8 9 11 10 10 10 9 6 7 8 7 7 10 9 8 7 10 8 6 8 8 9 8 8 9 6 7 7 7 5 8 7 6 6 5 7 7 9 9 9 9 9 9 9 9 10 10 10 10 9 9 9 10 10 10 11 10 10 10 11 10 10 10 10 9 9
4 2 2 1 2 5 4 5 1 3 5 4 5 3 3 3 4 5 4 4 4 1 5 4 1 2 1 5 5 3 4 7 9 9 9 9 9 7 7 7 8 8 9 10 9 8 5 10 9 6 5 8 7 7 9 9 7 8 6 5 6 5 7 7 6 5 5 7 8 9 8 8 9 9 9 9 9 10 9 9 9 9 9 8 8 9 9 9 9 9 9 10 9 9 9 8 8
3 2 1 1 3 4 5 3 6 2 6 4 4 4 3 1 3 3 5 4 5 2 4 3 1 3 3 5 3 1 7 8 8 10 8 9 7 5 6 6 8 7 6 8 9 9 7 5 9 6 4 6 4 6 6 6 8 7 5 5 4 6 6 7 6 6 5 6 7 8 8 8 8 8 8 8 8 8 9 9 8 8 8 8 8 7 8 9 9 9 9 8 9 8 8 7 7
3 2 2 2 5 4 3 3 4 5 7 4 4 4 2 3 1 1 4 5 1 4 4 4 1 1 3 1 2 3 6 6 7 8 8 8 5 5 5 4 7 7 7 6 10 9 7 5 4 5 5 6 6 6 6 4 7 7 6 5 5 5 6 6 6 7 6 5 7 7 7 7 8 7 8 7 6 7 8 8 8 8 7 7 7 7 7 8 8 8 8 8 8 7 7 7 6
3 4 4 3 5 3 4 4 3 4 4 4 7 3 3 4 2 1 2 3 4 2 4 6 1 0 2 1 2 5 6 6 8 7 8 6 6 4 4 5 5 7 7 6 6 10 9 6 5 4 4 5 6 7 6 4 4 4 6 5 5 4 6 5 5 5 6 6 4 5 5 5 6 7 7 7 7 7 8 6 6 7 7 6 6 6 5 5 7 8 7 7 7 7 6 6 6
2 3 4 4 5 4 2 3 2 1 2 5 5 5 4 3 3 1 4 1 5 3 2 5 1 2 1 6 3 5 5 7 9 7 6 6 5 5 4 5 4 6 5 5 4 9 9 8 6 6 5 4 3 5 5 5 4 4 4 4 3 4 4 4 4 4 6 5 4 4 6 5 6 7 7 7 6 7 7 7 6 6 7 6 6 6 6 5 5 6 7 7 7 6 6 6 6
2 3 2 3 4 7 1 2 1 2 3 3 4 6 5 4 2 3 2 1 7 4 1 4 1 1 2 3 3 5 6 7 7 6 5 6 5 5 5 5 4 6 5 4 4 5 7 9 8 7 5 4 5 4 3 4 6 4 5 3 3 3 4 4 5 5 6 6 6 6 6 7 7 6 6 6 6 7 7 7 7 7 7 6 6 6 6 5 5 5 4 6 7 7 7 6 6
1 2 1 2 4 3 1 4 0 3 2 3 3 6 5 2 3 1 3 3 2 2 2 1 1 1 4 8 5 8 9 7 6 5 7 6 5 4 4 4 2 4 5 4 5 3 4 6 7 7 7 6 5 5 5 5 5 6 5 4 3 3 4 4 5 6 7 6 6 7 7 6 6 5 7 5 6 7 8 6 7 7 7 7 6 5 5 6 5 4 4 5 6 7 7 6 6
1 0 1 2 5 4 0 3 4 1 3 3 0 4 4 3 1 2 1 0 1 2 0 3 2 1 4 4 9 9 8 7 6 7 6 5 5 4 4 5 4 3 3 4 4 5 4 4 6 7 8 8 6 6 6 7 8 8 7 6 5 5 4 4 4 5 6 6 6 6 7 6 5 4 5 5 7 5 7 7 8 7 7 7 7 6 5 5 6 5 5 5 6 7 6 6 6
2 2 2 4 4 5 2 2 1 3 5 3 3 3 3 6 3 2 1 1 1 4 1 4 4 6 8 7 8 9 9 8 6 7 6 6 5 5 4 3 4 5 4 4 3 5 5 5 4 5 6 8 7 5 5 5 7 9 6 5 4 4 4 5 4 4 5 4 5 5 4 5 5 5 6 6 6 6 7 8 8 8 7 7 7 7 6 5 5 6 6 6 6 4 7 4 4
3 2 3 5 3 4 6 0 8 4 5 4 3 0 1 5 6 2 2 4 4 3 3 4 4 7 6 6 9 10 9 8 8 7 8 7 6 7 5 5 5 4 5 5 5 4 5 4 4 4 5 6 7 5 4 5 8 6 6 6 5 6 6 5 4 5 5 5 5 5 5 5 5 5 6 6 6 9 8 9 9 9 8 8 7 7 6 6 5 4 3 3 5 5 4 4 5
4 3 4 5 5 5 7 6 6 5 3 6 4 2 1 3 1 2 2 2 7 6 5 4 5 8 8 8 8 9 8 9 8 8 8 8 6 6 6 6 6 5 6 6 6 5 6 5 5 5 5 5 6 6 5 5 6 6 6 6 6 6 6 6 5 6 6 6 6 6 6 6 5 4 8 11 9 7 7 10 10 9 9 9 9 6 6 6 7 6 5 4 4 3 3 5 5
4 5 6 4 2 4 2 4 3 4 5 3 4 2 1 3 1 2 2 2 3 5 5 6 7 9 11 11 10 9 9 9 8 6 7 7 6 5 6 7 7 5 5 6 6 7 6 6 5 5 5 5 5 6 6 5 6 7 6 6 6 6 6 6 6 6 6 6 6 7 6 5 5 3 5 6 6 6 6 5 5 5 5 5 9 5 5 5 5 5 4 4 4 5 5 6 6
2 6 7 8 6 6 2 8 7 4 4 3 4 2 0 4 1 1 3 3 1 3 6 8 6 4 14 11 8 7 9 9 9 8 8 8 9 8 6 5 6 6 4 6 7 6 6 7 7 5 5 5 5 5 6 6 6 5 6 7 6 6 7 7 6 6 6 6 6 6 7 6 5 6 5 6 6 6 7 6 6 6 6 6 6 6 6 6 6 5 6 6 6 6 6 6 7
6 5 6 4 6 6 3 5 3 1 1 2 2 2 3 1 1 4 4 5 3 4 4 7 6 7 12 11 9 8 9 10 10 10 9 9 8 7 7 6 7 7 7 6 6 5 7 7 6 7 6 6 6 5 5 6 6 5 5 6 6 6 7 6 7 6 6 6 5 6 6 6 5 6 5 6 6 6 7 7 7 6 7 6 7 7 6 7 7 6 7 7 7 6 6 7 6
8 6 5 8 10 5 1 6 1 1 3 2 3 0 2 1 4 0 4 3 4 3 4 4 4 6 10 10 9 10 10 11 11 11 11 10 10 10 8 7 6 6 6 6 6 6 7 9 8 7 7 6 6 6 5 6 6 6 6 6 6 6 7 7 7 7 6 7 6 6 6 5 5 6 5 6 6 5 5 6 7 8 8 7 8 7 7 7 7 7 7 6 7 6 5 5 5
10 9 5 6 7 5 3 5 0 0 2 2 2 3 3 3 3 2 2 3 2 2 5 4 4 4 4 8 8 8 8 7 8 7 7 6 6 7 7 5 6 7 7 7 7 7 8 9 9 9 8 9 7 7 6 6 6 6 6 6 7 6 6 7 7 7 7 6 6 6 5 6 5 5 5 5 6 6 5 5 5 6 6 6 8 7 7 7 7 7 5 7 7 6 5 4 4
9 9 5 8 8 1 4 2 3 3 2 3 2 3 4 5 5 2 4 6 4 2 1 6 4 3 4 4 7 7 7 8 7 8 9 7 6 8 8 7 6 7 8 8 7 7 7 9 10 10 9 9 8 8 7 6 6 7 7 6 6 6 5 6 5 7 7 7 6 6 6 6 6 5 5 6 6 5 5 4 4 4 4 5 4 6 5 5 5 5 5 4 6 6 6 6 6
5 9 6 9 11 6 6 6 5 5 4 3 4 4 5 3 5 4 5 9 9 9 5 4 5 4 5 5 5 6 6 7 9 7 6 7 7 8 8 8 7 6 8 8 8 7 7 10 10 10 10 8 8 8 8 8 6 7 7 7 6 6 6 5 5 6 6 6 7 8 7 7 7 5 5 6 6 6 6 5 5 5 5 5 5 6 4 5 4 3 5 5 5 6 6 6 7
12 6 6 12 12 12 6 10 8 3 4 4 4 6 5 4 4 7 3 1 4 1 3 4 4 4 4 5 6 6 6 6 6 7 9 9 8 8 8 9 9 8 8 9 8 7 8 10 10 10 11 10 9 9 8 8 8 7 7 7 7 7 6 6 6 5 6 6 5 6 8 8 7 6 5 4 6 6 6 6 6 6 6 6 5 5 5 5 5 4 4 4 5 5 5 6 6
8 10 7 7 7 10 11 10 6 5 5 4 4 5 8 6 10 5 6 9 3 4 4 4 5 6 5 5 5 6 7 6 6 7 8 8 8 8 9 9 10 9 7 8 8 9 9 9 10 10 10 10 11 11 9 9 8 7 7 8 7 7 7 7 7 7 6 6 6 6 6 8 8 7 6 6 5 7 7 6 7 7 6 6 5 5 5 4 4 4 5 4 3 3 4 5 5
4 5 6 7 8 10 9 3 5 6 5 5 6 6 7 10 11 7 10 12 12 9 6 5 4 4 4 5 4 5 7 7 7 8 7 7 8 9 9 9 9 9 8 6 8 10 9 7 8 8 10 11 12 10 9 9 9 8 8 7 7 8 8 8 8 8 8 7 7 8 8 7 8 8 8 7 5 6 7 8 7 7 6 6 6 6 6 5 5 5 6 6 6 4 4 5 5
7 4 3 7 6 9 7 8 9 11 6 8 7 9 9 5 7 13 15 13 11 10 10 8 7 5 4 5 5 5 6 8 8 7 7 8 7 8 10 8 9 9 7 7 11 10 10 9 9 8 11 11 12 11 11 10 9 9 8 8 7 8 8 8 8 8 8 8 7 7 9 9 8 8 9 8 8 6 6 7 8 7 7 7 7 6 6 6 6 6 6 6 5 5 5 5 5
5 5 11 7 9 3 7 9 12 12 6 11 8 9 10 7 6 6 5 7 7 8 7 8 9 7 7 5 6 6 6 7 9 8 9 9 8 7 9 10 10 10 11 10 10 10 11 10 10 9 10 11 12 13 11 9 9 8 7 7 7 8 7 8 8 8 8 7 8 8 7 10 9 9 8 8 9 8 7 7 6 6 7 7 7 6 6 6 6 6 6 6 6 6 6 8 6
7 10 5 8 7 6 7 8 7 14 6 11 13 4 2 5 9 10 6 8 9 8 7 7 7 8 7 6 5 5 5 6 7 9 9 9 9 8 8 9 10 11 10 10 10 11 11 11 12 11 12 14 12 12 10 8 8 8 8 8 8 8 8 8 7 7 7 8 8 8 8 8 10 10 10 9 9 9 8 7 6 7 7 7 7 7 7 6 7 7 6 7 7 7 7 8 7
8 7 8 5 7 6 8 3 9 8 12 7 10 10 9 5 6 2 6 6 6 5 5 6 6 5 5 5 5 5 5 5 7 8 10 9 8 9 8 8 9 9 10 10 10 12 12 12 11 12 10 12 11 11 11 10 8 8 8 7 7 8 8 8 7 7 7 7 8 9 8 8 9 11 11 10 9 9 8 7 6 7 7 7 7 7 8 7 8 8 8 8 8 8 8 8 8
8 8 8 9 8 9 5 5 7 11 11 8 10 13 11 9 10 10 4 3 5 6 6 6 7 7 7 7 6 6 5 5 6 5 8 8 7 8 8 8 8 9 9 11 10 11 10 10 10 11 10 11 11 9 9 9 7 6 5 7 7 8 7 8 8 8 8 8 9 9 9 9 9 11 11 11 10 9 9 8 8 7 7 7 8 8 8 9 9 9 10 8 8 9 8 8 7
11 10 7 6 8 9 10 5 3 8 9 11 12 11 10 11 12 8 10 7 8 10 9 8 7 6 6 6 5 5 5 6 5 5 5 7 9 8 8 8 9 9 8 10 11 10 11 10 9 9 10 10 9 8 8 8 7 8 8 6 7 8 9 8 9 10 9 9 9 9 9 9 9 9 10 11 10 10 10 10 10 8 8 8 9 10 10 9 11 11 11 10 8 7 9 8 7
7 7 7 9 9 8 7 8 4 10 6 10 10 11 11 10 9 10 11 12 13 10 9 7 7 8 7 6 7 6 7 7 6 7 6 6 6 8 9 8 9 9 9 10 11 11 12 12 11 12 12 11 10 10 9 10 10 9 8 10 11 10 10 10 10 10 10 10 10 10 9 9 9 9 9 10 11 10 10 9 9 9 9 10 10 11 10 9 9 9 8 7 10 9 8 8 7
11 7 8 10 8 8 6 7 5 9 5 4 7 9 11 11 9 9 7 8 10 10 11 12 12 8 8 9 10 10 9 5 5 5 7 7 6 6 7 7 7 9 10 10 12 14 13 12 13 13 11 12 12 12 11 11 12 12 13 13 12 11 10 11 12 10 11 9 10 10 9 10 10 10 10 10 10 11 10 9 10 11 10 10 10 9 9 9 9 9 8 8 9 11 8 6 6
10 10 7 6 6 4 5 8 7 9 6 6 2 7 8 8 9 10 12 12 9 9 10 10 9 10 9 9 10 10 9 9 8 8 7 7 7 8 7 8 9 12 12 13 13 12 11 12 12 12 11 12 12 12 11 13 12 11 11 9 11 9 9 9 9 8 8 9 9 9 10 10 11 11 10 10 10 10 11 10 9 9 10 9 9 9 9 11 10 10 10 10 7 7 7 5 8
9 9 9 8 1 2 4 6 3 5 5 2 4 9 10 10 12 14 11 10 9 9 13 13 11 12 12 12 10 9 10 11 12 12 12 10 9 9 9 10 12 11 10 10 11 12 11 11 12 12 12 12 11 13 13 12 12 11 10 8 7 9 8 7 7 7 8 9 11 11 10 10 11 11 11 11 10 10 10 11 9 8 9 9 10 9 9 9 9 9 9 9 7 7 8 9 8
10 8 6 8 5 4 5 1 5 8 6 2 1 7 11 10 11 12 11 11 12 14 14 14 13 12 12 10 10 10 11 10 12 12 12 10 11 12 14 15 13 12 12 12 12 12 10 14 14 13 11 12 12 13 14 11 9 7 8 6 4 5 4 5 6 8 10 10 9 11 12 11 11 11 11 12 11 11 10 10 10 10 9 8 9 9 9 10 9 9 10 10 11 10 8 7 8
8 10 9 5 4 6 5 3 5 1 3 2 1 5 11 7 14 18 13 12 16 14 16 17 17 14 12 13 13 11 10 10 11 11 12 12 13 13 12 13 13 13 13 13 12 12 11 11 11 10 10 11 12 13 14 11 11 11 10 10 10 9 9 9 11 13 12 12 13 10 9 11 11 11 11 11 12 11 11 11 10 10 10 9 9 9 8 8 10 11 11 11 11 12 9 6 8
8 9 11 11 8 5 5 4 3 5 4 2 8 8 10 4 6 4 5 9 13 10 15 16 13 12 12 12 11 11 12 12 12 12 10 9 11 12 12 12 12 13 13 12 9 9 10 9 9 11 12 11 11 12 13 12 11 10 13 13 13 13 13 11 10 9 9 9 7 9 10 10 12 12 11 11 11 11 11 11 11 10 9 9 9 9 10 10 9 10 9 10 11 9 10 11 11
10 4 11 12 12 11 8 4 4 3 1 4 5 4 10 12 11 7 11 14 10 7 12 14 12 12 12 12 11 11 11 12 12 12 13 14 13 11 11 10 9 11 11 8 8 9 11 12 10 11 10 10 10 11 13 14 13 13 12 12 11 12 12 11 10 10 8 7 9 11 9 10 11 12 12 11 12 11 11 11 11 10 10 9 9 10 10 9 8 7 10 11 9 10 12 13 11
3 3 4 9 13 13 9 7 4 3 2 6 4 4 10 13 9 7 11 12 13 14 11 7 6 9 10 11 11 10 11 13 12 11 11 11 12 12 12 11 8 7 7 9 10 9 10 10 10 9 11 10 10 12 12 14 13 13 13 12 12 11 11 9 6 8 9 8 10 10 11 11 11 13 13 13 12 12 12 12 12 12 11 11 9 9 9 10 11 10 10 11 12 11 10 11 10
8 2 1 3 4 6 8 5 5 4 5 11 9 6 8 19 8 7 5 12 14 10 10 14 12 10 8 8 9 10 11 10 9 10 10 9 9 9 10 10 10 9 7 7 8 8 8 8 9 10 10 10 10 11 12 13 14 12 12 12 13 11 9 7 7 8 8 9 11 10 10 10 10 11 12 13 13 13 13 12 12 13 13 12 10 10 9 10 11 11 10 11 11 12 10 10 12
4 3 1 2 1 3 4 4 4 2 11 14 11 11 10 14 8 8 6 8 8 7 7 9 11 11 11 8 8 12 12 7 5 6 7 8 7 9 9 10 9 7 6 6 6 6 6 7 8 9 11 10 9 11 11 13 12 12 12 12 13 12 11 9 9 10 8 8 11 11 10 10 9 10 10 11 13 12 13 12 12 12 11 11 10 11 11 11 10 10 9 8 10 13 11 11 11
8 4 7 2 4 6 2 1 4 7 12 13 10 10 12 14 4 3 9 7 6 8 7 10 11 8 8 8 10 9 5 6 7 7 7 7 9 7 5 5 5 4 2 4 4 5 5 5 5 7 7 8 8 9 9 11 11 11 12 12 12 12 11 10 12 12 11 11 10 10 8 7 9 8 9 9 11 12 12 11 11 11 11 11 12 10 11 11 10 9 9 9 9 10 11 11 11
10 9 9 10 4 4 7 2 9 11 14 3 9 9 11 21 16 5 7 2 3 1 0 1 1 5 7 7 6 5 5 5 6 6 7 6 5 5 5 5 3 3 4 4 4 4 5 5 6 7 9 8 9 8 8 9 10 11 11 12 12 11 11 11 11 11 10 10 9 8 8 9 7 8 9 10 10 12 11 11 11 11 11 11 11 11 11 11 11 10 10 11 11 10 10 11 10
11 13 11 11 9 8 10 10 4 5 6 4 1 9 14 4 11 14 20 17 4 5 2 3 5 7 6 5 4 4 5 5 4 4 5 5 5 5 4 3 3 3 3 3 3 5 5 6 7 8 10 7 6 6 8 8 10 10 9 10 10 9 9 10 10 10 9 8 8 9 8 8 8 10 9 10 9 11 12 13 12 12 12 11 12 12 11 11 11 11 10 11 12 11 10 11 12
12 8 13 12 9 4 8 7 12 12 10 3 7 3 5 9 5 6 14 13 15 10 8 6 6 1 1 2 1 2 1 2 4 6 6 6 5 3 3 3 3 4 3 3 5 5 5 5 5 6 7 5 5 7 7 9 9 9 9 9 10 8 9 9 9 8 8 8 7 8 8 7 9 9 9 8 9 12 12 11 12 12 12 12 11 11 11 11 11 10 10 11 10 9 11 11 11
6 7 9 9 13 3 8 2 4 4 3 4 6 8 2 7 5 5 2 4 6 7 7 6 5 5 5 5 5 6 6 6 7 6 6 4 2 3 4 4 4 4 5 5 4 3 3 4 4 5 6 6 6 6 6 6 7 5 6 7 8 8 7 7 7 7 7 7 7 8 8 8 8 7 8 8 9 10 11 12 11 12 12 12 12 12 12 10 10 10 10 10 11 8 10 12 12
6 5 10 12 4 7 3 3 3 3 1 7 3 6 10 9 15 12 7 2 7 8 12 11 10 11 9 10 8 6 6 6 5 5 5 3 2 4 4 4 4 4 3 3 4 4 5 5 5 5 5 5 5 5 5 5 5 5 6 6 7 7 8 8 9 8 8 7 7 7 7 7 7 7 7 7 9 9 10 11 11 11 11 11 11 12 12 11 10 10 10 11 11 9 9 11 12
6 7 10 4 5 3 4 5 2 4 5 4 7 11 10 5 10 7 17 13 10 10 10 12 13 9 9 7 6 6 6 6 6 3 4 5 5 5 3 2 1 2 3 3 3 2 2 3 4 4 4 4 4 4 5 4 5 5 6 6 6 7 8 8 7 7 6 7 7 7 6 7 7 7 7 6 7 9 8 9 9 10 10 10 11 11 11 11 11 10 11 11 11 10 11 10 12
8 7 7 10 4 3 1 1 8 4 7 4 7 9 11 8 10 1 4 13 11 10 8 9 8 8 9 8 11 7 4 1 2 5 4 5 3 2 2 3 3 3 3 2 1 0 1 2 2 2 4 4 3 3 3 4 4 4 4 5 6 6 6 6 6 7 6 7 8 8 8 8 6 6 6 6 6 6 8 8 9 9 9 10 10 10 11 11 11 11 11 11 11 11 11 12 11
4 6 2 2 3 1 10 10 1 5 8 4 10 9 9 9 9 8 6 3 5 5 7 9 11 10 11 8 1 7 8 6 4 4 3 1 2 1 2 3 4 4 3 2 2 2 2 3 2 3 2 2 3 4 4 4 3 3 4 3 4 4 4 5 6 6 7 7 7 7 7 6 7 6 6 6 6 7 8 9 8 9 9 9 10 10 11 11 11 11 11 11 11 11 12 12 11
7 4 3 4 3 1 2 1 6 3 4 9 7 9 3 5 6 8 10 13 6 12 13 11 9 7 3 7 6 4 4 4 4 3 4 4 4 5 5 5 4 4 4 4 3 2 2 3 3 3 2 3 3 3 2 4 3 3 2 4 4 3 4 4 4 5 6 7 6 6 5 5 4 6 5 6 7 7 7 8 8 9 10 9 9 10 9 9 9 11 11 11 11 12 13 12 11
12 11 11 11 10 5 7 6 3 3 2 3 5 14 2 0 3 2 2 4 11 13 11 10 7 5 8 5 5 5 4 3 3 2 3 4 4 4 4 5 5 6 6 6 5 5 5 5 4 4 3 2 2 3 3 4 3 2 2 2 3 3 4 4 4 4 5 5 4 5 5 5 5 6 6 6 7 6 6 7 8 9 9 9 9 9 9 9 10 11 12 10 11 12 12 12 11
Wind_Direction
304 300 306 297 275 268 306 252 283 200 126 215 126 158 85 102 114 117 93 175 120 43 75 68 54 41 14 33 8 62 32 51 13 223 173 163 269 194 169 120 134 131 123 130 126 134 138 115 153 150 140 142 144 137 118 117 112 90 97 110 101 97 91 90 90 96 104 104 106 105 105 104 110 111 99 101 102 99 98 95 91 87 85 87 89 88 87 88 88 89 90 91 92 91 91 90 91
297 306 299 294 283 70 265 185 242 273 198 80 52 85 139 82 201 119 149 190 91 105 104 88 81 44 315 298 32 131 48 53 61 82 72 112 200 130 127 127 135 130 124 126 137 145 137 133 146 138 132 122 127 133 131 125 121 110 113 114 104 98 95 97 95 99 103 106 106 109 105 106 111 110 112 103 97 101 103 99 93 89 87 88 88 90 90 91 93 94 95 95 93 94 94 92 93
300 305 304 305 292 178 270 269 266 273 201 99 70 75 114 139 144 140 136 86 94 98 99 77 79 278 273 192 189 39 114 100 92 89 103 134 145 169 153 140 140 131 128 139 147 147 138 136 137 138 134 127 124 129 130 131 135 128 126 120 117 100 98 92 93 101 103 104 104 107 111 114 117 116 108 108 110 105 106 99 94 92 91 89 89 90 91 91 91 91 91 96 97 93 91 93 92
283 266 269 323 317 323 260 250 248 260 314 139 90 155 136 161 85 72 75 85 98 110 116 131 163 21 348 13 34 111 99 69 100 133 124 162 175 169 149 143 135 131 121 135 152 141 136 139 138 141 151 136 134 134 133 132 141 132 131 126 100 94 100 101 102 101 100 103 109 114 115 119 123 117 112 110 110 107 102 101 98 98 97 95 94 92 92 94 95 96 97 97 98 97 94 91 92
276 265 226 274 329 295 334 265 253 339 6 35 113 147 162 142 103 96 83 90 103 116 179 140 125 27 82 280 355 62 84 90 63 105 128 160 130 166 150 137 139 125 132 140 142 137 127 137 141 145 145 133 128 138 141 146 150 135 139 143 108 102 108 108 106 103 105 104 105 113 118 123 124 120 118 117 112 109 106 102 103 100 100 98 98 97 96 98 100 101 99 99 99 99 97 93 92
299 309 257 237 219 40 277 293 272 92 29 342 117 124 140 108 106 112 106 80 48 57 11 176 349 168 165 59 8 83 262 110 129 88 118 136 132 157 148 142 130 141 140 136 140 112 131 132 132 137 142 135 131 137 142 159 143 96 147 140 109 113 106 105 103 108 110 108 104 108 116 119 114 121 119 114 110 107 104 104 105 105 102 102 101 101 98 96 98 103 106 104 101 99 99 98 94
311 332 266 148 262 184 259 264 284 97 23 13 92 120 102 93 101 115 111 95 64 46 50 315 105 180 140 108 84 48 14 98 118 73 118 132 134 148 142 143 124 137 143 128 113 116 124 126 127 129 131 138 136 143 149 151 132 104 134 112 125 119 116 113 110 108 109 109 107 111 117 120 126 123 117 117 114 109 106 107 107 105 105 104 104 103 103 100 101 102 106 106 104 102 101 101 99
242 294 335 355 312 221 252 260 315 70 26 48 20 83 104 99 125 119 131 147 147 193 186 310 6 349 65 189 103 80 61 56 100 103 111 128 136 139 161 128 133 134 130 95 100 119 123 122 123 133 134 145 149 154 154 158 154 170 113 106 128 124 122 119 118 114 115 107 118 114 114 117 119 118 123 121 115 112 110 108 107 105 108 109 108 105 106 107 105 106 105 109 108 106 105 104 104
235 182 196 318 255 260 267 274 97 101 117 83 63 39 73 114 127 133 159 129 128 187 164 176 199 241 149 106 75 118 82 95 106 115 125 134 139 149 148 140 135 138 113 96 111 116 126 125 121 118 138 149 158 161 149 162 166 157 107 101 127 138 133 125 125 131 127 127 125 121 123 127 126 128 126 122 119 114 117 115 111 111 106 109 111 112 110 111 111 112 111 111 113 111 109 107 105
302 183 306 302 328 294 243 268 328 103 105 98 121 113 86 115 139 152 150 123 140 140 160 169 149 253 16 118 121 134 125 120 125 116 126 138 143 151 142 146 132 137 123 122 123 126 122 127 124 113 133 149 169 168 159 159 167 145 122 106 114 146 141 131 137 137 141 133 130 127 132 133 131 131 129 124 123 124 125 122 119 115 110 108 114 118 117 117 117 116 119 114 115 115 114 112 110
305 197 184 263 257 264 251 219 112 164 110 96 92 116 126 139 135 171 160 106 130 148 77 70 128 269 287 83 72 22 117 129 135 128 139 139 151 151 144 139 133 136 128 131 123 121 130 126 124 124 123 158 149 103 81 158 163 157 133 125 122 147 150 145 149 143 139 144 135 133 136 136 137 133 132 129 126 127 127 126 125 121 119 116 114 119 125 123 123 125 124 126 117 122 121 120 119
293 267 120 250 259 258 344 331 119 106 104 140 115 125 104 149 160 220 139 134 121 126 142 167 37 188 243 132 110 156 131 140 120 131 135 136 145 151 137 128 133 133 131 127 119 126 133 133 134 137 125 131 126 111 110 100 162 163 155 141 143 145 150 158 160 154 150 153 149 143 141 145 141 138 126 120 116 122 127 130 130 130 128 129 123 121 127 134 131 134 133 131 134 127 134 131 128
259 302 286 274 266 288 341 328 47 69 107 199 129 117 150 126 189 259 124 110 153 132 160 197 59 278 205 113 138 130 145 114 121 127 128 147 141 145 131 121 143 129 133 126 133 135 136 142 161 148 141 133 123 129 119 102 102 146 147 152 156 146 149 159 170 161 152 153 151 142 132 140 134 138 134 128 128 131 133 126 129 137 134 132 127 124 128 136 142 141 142 143 144 145 140 147 143
301 321 343 285 297 258 261 293 23 45 239 97 103 136 141 147 204 179 109 241 142 174 1 149 324 38 337 100 139 147 114 111 122 121 136 139 136 124 132 118 140 121 135 127 150 137 140 148 163 159 151 155 140 132 130 128 119 109 126 142 145 153 142 143 148 132 139 135 111 124 133 126 131 136 138 138 136 140 131 129 129 130 133 131 134 141 138 145 150 151 153 156 156 157 155 156 158
299 310 290 292 298 316 124 288 295 235 41 97 128 140 134 40 30 43 10 191 67 94 94 42 48 12 3 335 120 115 125 118 122 130 133 119 116 127 113 124 131 120 137 149 154 144 148 152 160 158 162 173 168 162 154 149 138 134 128 109 112 150 143 147 142 139 136 130 122 120 134 133 131 142 143 145 142 136 136 134 132 129 133 139 147 151 151 153 162 157 161 169 170 168 169 165 168
257 334 281 282 283 289 229 193 76 347 81 78 202 121 117 86 48 190 67 38 116 27 142 89 20 69 61 73 110 108 112 123 129 125 111 115 120 116 99 119 139 128 144 170 156 169 162 163 155 156 163 173 177 174 174 157 161 151 142 136 138 132 145 138 147 152 144 136 133 138 139 144 144 149 155 149 142 145 145 143 145 142 143 150 151 154 163 165 164 169 182 186 184 179 178 176 165
252 218 295 243 267 248 353 201 142 225 137 94 170 159 129 139 186 61 205 8 175 135 108 119 129 131 89 117 113 119 119 114 130 120 110 117 110 115 118 134 159 147 140 187 158 175 167 186 163 154 169 168 175 174 180 167 169 165 160 168 162 158 130 135 142 151 145 141 142 155 157 164 168 163 172 168 154 153 163 148 157 155 154 154 158 159 162 170 173 176 191 198 197 194 175 152 157
201 217 201 259 256 257 268 266 15 124 117 149 159 193 154 133 169 115 84 140 233 135 213 124 83 64 111 122 125 121 123 137 139 137 141 136 151 147 159 179 165 173 165 174 209 166 182 178 194 162 170 164 170 177 185 162 166 170 168 168 174 164 160 134 149 168 172 168 171 168 178 202 190 181 178 174 171 167 161 162 168 160 158 154 155 156 161 167 176 187 195 200 203 149 147 148 156
213 240 226 244 227 255 255 149 53 0 82 105 122 243 298 104 165 148 181 179 193 184 189 154 156 112 111 131 126 135 145 145 155 159 156 158 172 165 172 172 183 172 172 174 195 195 176 181 185 185 168 167 165 180 179 144 157 171 176 173 177 177 176 170 179 186 186 183 182 185 201 213 211 188 169 182 177 170 162 166 169 163 160 158 158 154 155 158 181 161 139 146 145 163 184 191 185
213 264 241 231 262 289 25 37 64 60 314 130 140 84 289 104 106 134 227 241 169 203 181 177 187 160 158 151 151 145 156 153 168 168 169 169 182 169 174 171 183 195 170 178 176 196 177 184 189 188 176 176 168 173 167 154 158 171 181 180 176 179 182 183 195 194 198 202 179 194 200 218 215 192 180 174 169 169 163 167 171 167 163 162 158 152 147 146 142 133 153 163 166 181 211 228 214
158 216 242 260 184 10 254 158 116 71 13 33 86 93 236 128 111 159 179 261 246 200 204 178 203 177 163 160 158 155 158 160 174 177 177 180 185 184 180 178 179 190 172 165 171 188 184 178 183 197 177 181 173 171 163 190 170 172 183 186 181 178 184 180 192 202 203 205 191 190 209 212 207 169 149 157 159 158 155 159 162 173 170 172 167 170 166 169 168 169 169 190 200 201 217 230 224
294 226 225 253 284 276 339 63 43 66 47 303 74 229 97 77 68 205 255 229 11 56 49 63 60 72 148 151 159 161 164 165 176 182 189 187 187 190 183 176 169 172 175 168 181 178 184 181 175 194 185 181 179 173 170 181 177 190 181 185 189 178 182 181 190 200 203 203 198 191 205 214 197 186 162 164 178 165 159 164 174 181 181 185 187 190 180 180 192 186 179 187 209 213 212 229 237
230 247 270 264 268 283 34 57 40 13 245 243 235 351 106 205 273 182 223 235 153 130 75 80 62 87 137 146 149 173 172 174 181 189 189 192 192 193 193 178 171 177 178 186 173 179 178 183 176 179 194 179 180 183 174 175 182 188 192 188 191 181 176 184 189 198 201 199 198 195 195 209 206 192 183 171 181 189 168 173 180 187 196 189 189 203 198 182 191 195 188 186 198 218 215 221 238
232 243 214 228 260 268 345 95 186 358 305 267 31 222 295 241 244 141 212 212 287 355 104 74 95 110 135 143 163 178 183 182 189 191 192 195 189 192 191 186 176 166 167 187 179 180 177 183 183 177 187 186 180 185 186 183 179 188 193 190 206 196 178 187 188 193 197 197 196 194 191 202 204 200 195 176 182 186 197 182 183 190 195 188 183 190 210 187 194 196 186 184 190 210 224 221 235
230 226 247 269 231 218 226 118 111 176 262 31 323 297 250 233 258 67 263 269 262 225 134 131 124 124 155 154 172 180 187 191 192 191 190 198 196 188 193 193 178 165 173 183 186 180 179 180 184 186 184 188 183 180 196 189 181 185 193 191 199 210 191 186 186 186 194 194 190 191 183 203 216 203 197 186 177 188 194 197 191 193 190 192 174 199 199 202 195 191 183 183 183 197 219 229 228
224 230 202 252 268 147 272 171 167 214 211 144 255 243 256 264 73 245 253 261 250 271 194 137 147 165 169 189 177 183 187 190 186 186 193 189 188 186 191 193 192 176 181 178 182 187 172 178 185 188 186 187 183 182 194 195 188 183 191 196 196 202 210 197 186 193 190 184 188 188 188 191 209 210 194 188 175 188 192 197 196 208 202 202 197 212 210 185 192 191 196 188 183 193 203 219 216
211 228 207 237 248 227 180 249 223 193 220 187 222 241 247 233 122 245 205 231 227 228 212 171 187 187 192 186 189 183 190 193 185 185 178 180 192 193 191 189 197 194 172 183 182 184 175 175 187 187 187 183 181 186 189 200 194 188 186 188 194 197 202 209 206 198 196 195 190 185 189 191 200 212 202 192 183 184 191 192 203 208 213 210 198 210 211 197 195 193 202 207 198 194 206 212 212
244 219 219 224 238 252 220 195 225 207 214 207 243 254 256 246 141 232 257 58 65 131 193 209 196 204 216 199 185 181 189 196 184 177 189 183 190 192 192 187 195 195 183 187 181 178 179 181 186 188 186 182 183 188 186 194 199 198 184 183 194 196 185 197 213 213 204 204 201 186 188 187 194 207 207 206 187 183 189 192 198 203 211 210 204 205 209 196 195 222 226 216 206 194 213 225 227
249 229 253 255 245 236 244 222 177 189 244 170 206 261 246 231 235 205 227 265 221 202 232 215 193 193 208 214 197 177 186 190 184 184 198 193 185 185 198 194 187 193 200 185 177 175 186 183 185 191 187 183 187 190 188 190 193 197 192 186 190 191 188 187 199 211 212 203 205 201 187 187 188 199 208 212 198 188 191 196 198 204 203 202 208 209 204 197 194 214 240 243 250 232 222 237 236
267 249 248 255 248 243 223 233 211 205 216 193 112 256 221 227 234 220 205 223 233 238 225 227 240 232 212 200 205 198 181 182 193 196 193 192 182 186 196 194 186 187 187 184 179 183 183 185 182 186 191 188 190 192 189 188 192 194 194 192 188 188 192 191 196 199 205 209 197 203 202 192 187 194 201 213 208 198 194 199 198 200 198 200 206 203 202 198 202 203 219 227 237 236 243 252 264
207 232 249 228 231 237 206 208 193 224 176 196 155 242 248 238 223 214 213 210 217 230 234 239 238 231 230 213 209 206 198 183 193 198 194 189 190 187 188 188 186 181 177 185 191 186 181 184 182 189 190 192 187 194 194 193 191 192 193 194 196 192 194 197 195 195 199 205 206 206 202 202 197 192 196 202 214 210 205 202 200 197 193 198 201 199 191 199 201 212 197 209 224 235 244 256 263
205 198 223 219 228 218 232 205 193 207 190 196 172 244 253 249 255 307 185 188 206 226 232 229 227 228 230 224 207 208 213 191 193 195 192 193 190 194 186 188 184 181 184 188 188 182 186 184 186 190 187 195 191 194 197 192 191 192 194 196 198 198 198 200 197 197 198 198 205 212 203 199 201 203 197 195 207 214 213 210 204 190 194 195 199 198 189 195 198 207 200 192 211 226 228 241 250
201 215 218 214 209 235 253 222 211 194 203 195 186 232 156 225 222 229 174 178 197 214 214 218 221 226 228 226 219 212 209 210 196 194 192 188 196 193 191 185 183 186 185 181 183 185 189 187 186 192 189 194 193 193 195 194 187 191 196 198 200 198 203 204 202 196 196 200 202 205 204 197 197 201 204 201 202 209 214 215 204 195 192 194 196 199 204 200 198 205 205 203 209 222 219 228 225
207 201 233 222 214 199 230 193 228 191 196 188 195 229 240 281 296 261 183 187 189 213 226 226 226 229 230 230 230 219 213 214 210 194 192 189 189 193 191 186 186 183 185 185 182 184 190 188 190 194 192 193 195 190 192 194 193 189 194 198 198 201 204 206 207 203 205 200 199 205 200 198 196 198 200 204 207 207 210 213 207 200 196 197 196 199 208 200 206 207 214 208 205 212 221 220 224
191 192 217 227 243 236 231 184 204 197 180 204 193 222 233 235 240 258 257 181 186 216 217 228 236 235 237 237 227 228 229 218 218 202 186 187 191 188 184 180 184 186 185 187 185 184 187 192 188 192 192 190 195 189 187 191 194 199 198 199 202 208 205 203 203 210 209 204 205 202 199 202 200 197 198 199 204 203 206 210 211 208 198 199 199 202 207 205 205 209 213 214 210 214 218 225 230
216 203 208 216 226 225 235 236 137 166 187 211 223 230 229 220 233 239 243 239 208 215 221 226 229 233 237 236 228 229 229 230 224 209 195 189 196 190 181 177 185 187 189 188 189 185 188 191 187 188 194 192 188 185 176 183 187 197 205 207 212 210 210 206 206 210 204 209 206 199 199 201 201 201 198 198 200 201 204 208 210 206 207 202 204 206 208 204 203 204 212 210 216 220 216 219 223
236 227 228 216 216 233 233 230 195 185 198 214 222 238 249 249 226 219 225 230 243 245 241 235 218 220 229 241 249 243 233 230 219 211 210 216 204 190 184 178 182 188 193 190 191 195 191 190 183 190 193 190 183 185 182 181 189 198 208 210 214 207 208 209 211 209 208 207 202 201 198 200 201 200 202 198 203 202 205 204 206 208 207 209 209 212 208 210 207 204 207 203 212 220 224 210 213
247 252 233 235 219 229 220 232 166 178 191 228 215 235 236 241 248 249 248 238 231 227 233 236 241 229 217 221 230 236 240 242 240 226 226 219 219 196 185 182 181 188 203 196 197 199 196 190 190 194 186 190 191 188 186 189 194 195 194 204 204 205 205 206 212 209 210 207 203 200 200 202 200 199 201 203 203 203 204 203 204 207 206 212 214 209 208 209 207 204 195 211 209 217 228 188 198
233 241 253 252 236 237 225 220 199 172 191 236 272 282 265 251 245 235 231 234 239 236 234 237 230 233 235 224 222 225 225 229 230 225 224 222 217 210 195 198 201 201 199 198 205 200 196 194 199 193 188 189 192 189 188 198 198 202 199 203 198 208 213 213 214 208 203 208 208 204 203 203 200 203 198 200 205 205 206 204 205 200 206 208 212 214 207 208 206 203 198 204 206 217 225 199 193
232 226 237 239 252 226 228 216 248 222 195 163 190 244 258 261 260 261 253 248 245 237 237 238 230 233 232 233 227 223 220 222 226 225 228 224 219 213 212 214 215 213 213 210 205 202 199 200 201 196 193 188 190 194 198 202 201 203 208 206 200 201 203 205 208 206 207 206 210 206 208 203 201 203 200 199 203 206 205 206 204 202 204 201 207 214 215 215 204 206 205 206 192 214 210 223 200
227 237 232 236 227 245 250 264 214 230 241 193 333 283 269 255 260 258 252 246 244 239 243 242 238 233 234 237 239 232 233 222 225 228 228 223 221 217 213 216 218 217 218 218 211 203 203 202 201 195 191 190 192 195 197 196 193 199 204 213 207 211 224 195 195 213 210 209 207 206 209 202 201 202 201 200 201 205 205 205 203 205 204 202 202 212 216 217 212 209 205 207 205 212 217 214 214
222 224 231 245 218 241 259 259 317 315 285 183 158 292 262 227 233 238 238 233 232 231 236 236 234 234 232 235 235 235 238 237 233 228 223 220 223 225 221 219 216 217 220 219 215 213 208 205 198 193 194 193 196 197 195 190 194 193 189 193 204 205 211 204 206 207 206 205 208 204 204 202 203 203 200 201 201 201 205 204 202 200 203 202 203 209 215 215 215 211 207 208 214 211 214 207 218
211 209 205 228 255 259 248 260 156 251 231 196 162 216 277 140 252 237 251 231 231 223 230 238 235 235 233 232 232 231 231 237 240 242 235 231 228 227 227 223 216 216 220 216 210 212 211 208 199 196 198 199 196 194 191 192 200 199 199 201 202 202 208 215 214 212 210 213 202 203 205 203 204 203 203 201 201 200 202 203 204 204 202 202 201 204 211 215 215 213 205 207 212 207 205 225 217
228 164 187 199 222 236 241 245 234 259 322 278 267 215 272 275 238 238 249 265 267 238 226 226 223 221 222 224 225 226 227 228 232 233 235 236 238 237 237 233 223 219 218 208 203 205 207 209 201 199 200 200 197 193 190 194 200 202 203 208 207 211 211 216 204 213 209 198 203 206 202 205 203 204 204 203 202 200 200 203 204 206 207 206 196 206 211 214 218 215 207 208 208 206 207 218 223
213 180 179 199 200 217 226 221 234 242 310 258 234 271 278 260 260 197 232 248 240 241 246 249 224 216 215 217 218 221 225 227 223 227 233 232 234 237 239 243 242 233 209 201 204 203 203 206 204 199 201 201 202 194 195 198 202 203 205 207 213 217 215 216 199 202 207 199 207 204 204 205 203 203 203 202 202 200 198 201 200 204 207 209 203 207 209 209 215 215 207 207 209 212 211 218 220
215 27 328 264 208 198 206 208 200 241 234 245 223 190 249 271 256 243 206 222 237 238 228 240 242 236 229 216 212 218 228 228 223 227 227 224 224 225 225 230 234 232 225 202 202 197 196 197 202 202 207 204 202 202 201 202 203 203 209 210 215 218 211 215 203 209 205 200 211 205 203 201 201 200 202 202 201 202 201 199 200 203 205 206 205 210 209 210 214 217 212 209 209 213 214 214 219
94 134 352 334 290 209 189 185 172 203 238 237 214 201 217 277 249 231 198 223 225 213 228 231 231 229 231 217 204 218 224 221 223 232 230 225 217 216 215 217 220 222 220 207 193 189 186 191 198 204 213 210 206 207 202 207 204 203 212 213 214 218 211 208 212 219 210 205 210 209 204 204 198 201 197 203 204 202 204 200 202 203 202 203 205 208 213 212 214 218 221 215 209 211 213 217 221
153 157 169 60 326 15 22 287 162 218 243 235 201 202 209 240 276 189 222 227 194 194 207 218 215 214 213 222 223 227 206 206 215 220 228 220 228 231 223 234 233 227 185 198 185 171 180 192 195 212 225 219 216 212 206 210 208 208 213 214 216 218 212 211 215 219 213 215 211 211 209 204 206 200 199 202 205 202 202 203 203 202 201 201 205 205 210 213 214 216 221 224 222 213 214 215 222
169 130 149 172 192 142 225 142 221 210 230 199 180 182 237 231 244 304 320 71 23 296 182 82 101 184 205 226 234 226 214 206 206 216 221 223 215 218 224 244 242 219 213 199 193 187 191 196 200 210 230 225 222 216 212 213 210 211 211 214 219 217 214 216 219 221 216 217 213 209 201 212 202 203 204 201 205 199 199 203 202 203 205 205 204 202 208 207 210 212 218 221 222 220 215 217 223
166 169 169 175 190 183 210 206 236 261 251 258 348 192 235 262 273 219 245 259 263 270 267 227 224 214 208 202 221 217 196 183 199 213 214 216 211 210 205 196 177 180 178 183 189 186 202 209 212 214 233 228 224 223 221 219 216 214 209 212 219 217 220 218 221 221 217 217 212 215 207 205 205 208 203 207 196 194 201 205 202 205 205 204 204 204 204 205 207 210 214 219 220 220 219 220 226
187 169 179 186 183 171 203 196 208 213 230 183 205 325 221 163 221 171 222 209 212 195 199 222 257 342 68 87 71 60 108 174 203 216 217 215 216 183 166 152 136 131 141 182 202 217 212 220 221 231 247 248 226 225 222 222 221 213 208 209 212 211 218 220 224 220 218 216 214 213 212 206 208 208 205 204 190 195 200 201 202 203 204 204 202 205 206 206 207 210 214 219 219 215 215 218 224
210 184 173 191 206 173 214 157 197 206 223 217 187 212 191 204 338 338 239 239 224 203 217 220 236 247 235 250 232 213 205 212 212 216 225 228 187 163 148 141 157 174 205 222 231 231 227 233 228 231 235 237 228 234 232 226 229 222 213 212 213 209 210 214 221 218 219 211 211 209 214 213 212 203 203 196 199 192 196 200 199 205 203 202 202 204 206 206 205 207 215 216 220 213 215 215 221
179 147 207 206 235 219 38 10 98 62 24 249 191 261 266 307 282 273 285 237 206 206 221 225 219 214 217 228 236 234 224 222 222 215 218 210 156 130 140 158 195 219 240 237 228 215 213 226 231 245 250 249 240 238 233 230 228 219 220 212 208 207 205 207 213 217 215 213 212 215 215 216 209 206 204 195 197 198 195 194 198 203 204 203 204 204 205 207 205 208 213 217 221 216 213 216 217
130 207 204 88 27 92 151 226 129 196 232 241 186 230 248 210 279 201 223 208 209 206 209 217 221 210 217 234 247 245 237 226 214 172 114 115 130 146 152 156 185 214 232 255 262 251 223 215 216 232 254 250 259 250 245 234 226 220 221 219 216 208 205 207 207 212 207 206 216 217 217 217 214 208 202 201 194 195 196 190 194 200 203 203 205 205 203 204 203 210 213 217 219 214 217 219 220
203 205 149 162 176 237 208 170 228 168 213 243 223 221 243 212 234 11 195 216 210 210 209 218 217 208 214 226 233 241 267 300 59 68 65 67 81 109 151 188 221 229 247 252 263 15 352 320 295 271 261 260 263 266 252 241 220 217 213 218 217 219 212 207 208 208 204 205 210 211 212 216 214 210 205 205 195 186 191 192 195 198 201 205 204 204 202 203 202 208 212 218 218 214 216 222 223
208 50 234 352 46 255 172 199 232 191 234 220 249 178 243 212 235 248 272 241 186 186 206 220 215 204 210 218 359 48 59 52 41 54 48 20 9 343 344 0 9 9 10 6 4 360 337 314 322 307 305 295 289 286 292 289 266 235 241 232 231 217 215 210 206 202 209 213 217 214 215 215 216 206 208 201 196 194 189 191 195 196 200 204 206 207 201 201 202 209 212 217 219 215 219 223 224
181 170 191 166 207 279 79 331 204 171 208 225 263 256 212 236 197 231 232 248 206 195 205 205 210 211 122 87 108 93 77 75 60 37 36 19 17 9 5 5 355 345 353 2 14 2 340 350 345 333 347 340 337 306 289 264 274 281 261 248 243 236 239 226 215 206 206 214 218 218 216 214 203 213 204 204 205 203 195 192 193 199 203 205 206 210 207 204 205 212 216 217 218 216 220 224 222
184 182 200 181 173 187 196 236 130 245 157 216 199 252 248 292 44 339 295 270 240 226 219 193 193 101 101 92 85 110 97 76 80 49 44 20 9 2 354 358 6 22 17 20 6 19 10 6 358 357 8 343 336 323 334 326 319 298 293 288 275 259 240 238 229 222 213 213 210 206 211 205 203 215 198 208 209 207 202 199 199 205 208 209 210 210 208 205 212 217 221 219 222 221 224 227 221